GFSSW_700_rhum_273.txt.gz
RH
5 6 6 5 5 6 6 7 8 9 10 10 11 11 12 12 13 12 11 11 10 10 10 9 9 9 6 4 8 13 21 24 26 24 28 32 30 28 28 28 41 47 47 45 46
5 6 6 5 6 9 9 10 11 12 12 12 14 14 14 13 13 14 13 11 11 10 8 8 8 8 9 8 8 10 10 26 28 18 16 29 33 28 27 28 45 76 77 86 81
5 6 6 6 8 10 11 11 11 12 13 13 14 14 13 13 13 12 11 9 7 5 4 3 3 3 4 8 10 12 17 19 22 22 10 20 29 33 28 29 30 34 51 38 58
5 7 8 7 9 10 11 12 11 13 14 14 14 14 14 13 15 13 6 5 4 4 4 4 4 4 4 4 7 12 13 12 14 16 12 19 32 33 31 31 31 30 32 33 37
6 9 10 10 11 13 13 15 15 15 14 14 15 15 13 9 8 6 4 4 5 5 6 6 6 6 6 6 6 6 7 11 16 16 12 12 22 26 28 30 29 31 31 31 32
7 10 11 11 14 17 18 17 17 16 16 16 15 12 7 6 5 5 6 7 7 7 7 7 7 6 6 6 6 6 6 5 5 6 14 17 16 23 22 22 24 27 30 31 31
10 14 15 15 15 16 16 16 17 18 17 14 9 6 5 5 6 7 8 8 7 6 4 4 3 3 4 7 10 10 8 7 5 6 7 6 8 17 20 21 19 16 21 26 29
16 17 16 15 15 16 18 19 19 16 11 7 6 6 6 8 9 8 7 5 4 3 3 3 3 3 4 6 7 10 17 19 23 18 16 18 20 15 18 21 14 18 20 20 21
16 16 17 16 18 19 19 18 14 10 7 6 6 7 9 9 7 6 5 4 3 2 2 2 2 2 4 4 7 21 35 30 27 28 36 34 35 35 28 28 27 22 12 11 10
17 16 19 18 20 20 18 13 9 7 8 8 10 12 9 7 6 5 4 3 2 2 2 2 2 6 21 30 46 46 43 44 43 33 20 26 27 33 36 32 30 26 24 16 15
17 17 20 20 20 16 12 9 8 8 11 13 14 10 7 6 6 4 3 3 3 3 2 7 10 21 41 44 46 46 45 45 44 43 40 26 27 27 36 35 31 29 26 23 22
18 19 21 20 16 11 10 8 9 10 10 10 9 8 6 6 6 6 4 4 4 3 8 14 9 28 32 31 33 38 47 47 45 42 39 34 30 21 30 29 35 40 31 28 29
19 20 20 16 12 10 9 13 12 11 11 10 8 8 9 12 8 7 7 9 8 6 14 8 28 33 28 32 26 35 54 56 55 50 36 37 39 33 38 44 50 67 68 62 45
21 20 17 14 11 9 9 11 11 13 13 16 17 12 11 15 14 11 10 16 13 9 10 15 33 31 38 39 51 51 47 52 56 53 46 44 70 54 64 65 58 53 71 62 56
21 19 16 13 10 9 10 10 11 15 43 22 18 18 18 20 18 17 16 16 17 14 29 39 42 31 25 55 64 54 50 46 39 56 44 59 65 63 74 70 88 80 63 60 58
22 20 16 12 9 10 10 11 11 26 28 25 24 22 17 29 24 21 17 15 18 29 37 42 66 37 30 36 30 39 40 39 40 53 81 63 55 65 94 95 94 89 56 38 43
23 21 16 12 10 10 10 10 15 21 26 23 27 25 26 38 30 25 14 15 19 20 21 25 23 30 27 14 13 20 36 54 64 72 74 75 53 71 72 81 77 54 36 27 26
23 22 17 13 11 11 10 12 16 22 31 30 29 26 40 39 38 30 20 28 31 26 33 33 28 25 30 46 35 55 55 71 100 99 78 57 65 73 55 55 59 47 34 26 19
25 23 16 12 11 11 11 15 16 18 28 33 23 34 37 39 35 33 30 36 38 37 30 36 36 38 38 43 49 35 49 66 80 79 95 65 85 83 83 59 42 34 32 25 22
26 23 16 12 11 10 12 14 17 20 29 33 22 28 34 38 30 30 28 37 43 46 41 42 48 38 43 28 62 63 62 74 81 99 96 69 59 63 72 63 45 31 30 24 20
28 22 15 12 11 11 11 14 17 22 29 16 18 24 26 26 24 26 33 41 50 49 54 57 54 48 44 36 65 45 45 56 63 83 98 91 58 55 80 64 42 30 28 24 31
28 20 15 12 12 12 11 13 18 22 20 13 14 17 17 18 20 26 38 44 47 50 56 50 46 56 46 36 50 49 45 58 76 71 78 80 67 34 34 39 37 35 29 32 39
27 19 16 13 13 12 12 14 16 18 19 11 10 12 12 12 17 27 46 46 54 50 52 46 56 60 41 50 62 76 48 52 67 82 88 93 63 50 60 67 54 49 44 44 55
24 18 21 15 13 11 12 13 16 15 13 11 11 11 13 14 12 24 43 48 55 59 62 56 59 54 47 39 52 50 44 54 72 93 80 80 87 75 86 80 71 60 63 73 73
22 18 20 17 13 13 12 14 16 15 14 14 16 15 18 15 15 25 32 42 50 48 42 46 40 49 34 35 46 44 45 63 78 72 92 66 89 76 84 94 84 84 86 90 79
20 19 18 15 14 15 13 14 14 14 17 17 17 16 14 14 20 22 27 31 27 24 26 26 28 32 23 21 47 55 43 53 59 74 83 79 79 82 84 73 70 71 64 64 77
23 21 18 16 12 14 14 18 22 28 29 26 29 28 28 26 32 36 26 24 26 23 36 52 44 37 32 40 54 50 35 51 73 67 63 60 70 61 64 79 67 58 54 51 62

GFSSW_700_rhum_279.txt.gz
RH
4 6 6 7 5 5 5 5 6 9 10 11 11 12 12 12 12 11 11 10 10 9 10 9 9 6 5 10 27 26 25 38 39 37 38 38 36 34 41 65 52 48 66 59 78
5 5 5 5 4 5 6 8 9 10 12 13 13 13 13 11 12 12 14 13 11 11 11 10 9 9 8 7 14 18 29 35 37 35 32 31 32 35 33 50 57 64 78 84 66
6 5 5 4 4 5 8 10 10 10 13 14 13 12 12 12 11 10 10 9 8 5 4 5 7 6 8 8 11 15 19 36 32 30 30 26 26 31 33 37 50 61 63 65 86
5 5 5 4 4 4 8 10 10 9 12 14 13 13 13 12 8 10 6 5 4 4 4 4 3 3 3 6 11 18 23 26 25 24 22 22 24 24 28 30 31 34 35 36 38
5 4 4 4 4 4 6 9 9 10 12 14 14 13 12 9 8 5 4 5 5 6 6 6 6 5 4 4 5 9 13 16 16 14 10 11 15 17 23 24 25 28 29 31 32
4 4 4 4 4 4 5 10 10 12 13 14 14 13 10 8 5 6 6 7 7 7 7 6 6 7 7 6 6 6 6 7 9 11 13 14 10 9 12 16 20 22 23 26 28
4 4 4 4 5 7 8 11 13 13 14 14 13 8 6 6 6 8 8 7 5 3 2 2 2 3 4 5 6 7 6 6 6 6 8 10 14 16 14 12 11 10 13 16 20
4 4 6 7 9 12 13 14 13 13 15 12 7 6 6 8 9 7 5 3 3 2 2 1 1 2 2 4 5 7 7 5 5 4 4 5 16 15 12 10 9 11 11 11 11
7 7 11 13 13 13 12 13 14 14 13 7 6 7 10 9 7 5 3 3 2 2 2 2 3 2 2 3 4 5 8 10 6 5 4 3 9 14 12 9 8 6 5 7 10
13 14 12 12 13 14 13 15 16 14 8 6 8 10 11 8 6 4 3 3 2 2 2 2 2 2 4 5 6 6 8 9 7 6 8 10 12 13 14 14 13 14 12 10 10
16 14 13 14 15 16 15 16 12 8 6 9 10 12 8 6 6 4 3 3 2 2 2 2 2 2 4 4 6 9 9 12 20 18 13 19 12 13 19 33 31 30 29 33 24
14 17 15 16 18 18 16 14 9 7 7 11 11 8 6 6 5 4 3 4 3 2 2 2 2 4 6 6 8 10 10 10 14 18 17 27 22 26 34 32 36 44 46 49 49
16 18 17 18 19 17 15 9 7 7 9 10 9 7 7 7 6 4 5 4 3 3 3 3 8 5 5 5 4 6 7 13 19 13 31 24 37 55 55 58 56 47 56 66 57
18 19 20 20 18 16 11 7 7 9 10 11 10 9 8 7 6 5 5 4 3 4 6 4 8 5 4 3 4 4 6 9 18 24 40 43 31 45 48 52 38 35 65 68 41
19 20 22 22 16 13 9 8 9 10 27 15 13 14 8 9 11 7 6 6 4 4 8 11 8 6 4 4 4 6 5 10 18 34 43 64 56 46 40 45 51 55 61 44 38
20 21 23 20 15 11 9 9 10 12 18 20 17 16 12 11 9 8 8 7 7 6 6 6 8 7 7 5 5 5 6 18 26 38 62 74 60 53 46 46 60 56 50 45 41
21 24 23 19 14 11 9 10 12 13 19 22 17 13 10 13 13 10 9 9 7 9 9 10 12 9 9 7 8 6 7 32 35 55 52 79 50 56 58 53 66 64 51 46 43
22 24 23 18 14 11 9 10 11 17 18 18 16 15 11 14 16 14 11 10 11 8 9 11 24 12 10 8 10 14 14 22 30 42 46 37 38 57 62 64 58 59 66 58 54
24 25 24 19 14 10 10 11 12 12 15 15 17 16 13 17 18 16 13 13 15 11 9 14 27 24 20 13 11 21 28 42 52 66 76 61 54 39 45 54 72 64 65 64 61
25 27 25 19 14 10 10 10 12 12 14 18 17 16 16 17 18 14 12 16 17 16 10 13 27 31 26 18 17 16 25 44 43 61 51 48 50 42 52 52 39 36 37 37 35
26 30 25 20 14 11 10 11 12 14 15 19 20 17 18 18 19 15 14 18 16 19 14 12 12 28 27 22 20 24 27 32 38 63 59 48 31 44 63 71 52 51 51 52 54
28 31 24 20 14 11 10 11 12 13 16 20 23 22 18 19 20 17 13 13 17 18 18 15 15 22 29 21 25 28 32 35 39 56 65 66 44 42 59 60 55 64 67 67 65
30 31 24 20 14 13 11 12 12 14 17 20 22 19 16 17 19 15 15 16 17 22 23 21 25 24 27 26 27 36 38 42 48 57 78 78 44 40 57 62 62 58 66 59 50
34 33 25 20 15 13 13 12 14 14 19 21 24 17 14 17 16 14 16 18 21 23 24 24 26 21 18 15 18 23 22 34 51 66 58 66 38 35 36 44 56 47 45 43 47
36 32 25 18 16 13 12 13 13 14 18 23 23 14 12 13 14 14 14 18 26 28 30 34 32 21 19 18 17 14 25 36 39 38 59 46 54 41 48 46 42 42 35 33 40
36 31 26 21 16 14 13 13 12 13 16 16 17 13 12 15 15 14 16 20 25 30 30 32 40 26 19 19 19 13 12 20 20 35 47 49 43 44 45 51 43 39 38 39 38
37 34 25 23 19 14 13 13 12 16 17 16 16 15 16 18 16 15 18 25 27 28 33 40 38 43 33 21 22 20 14 16 16 14 23 37 24 54 45 52 48 47 40 46 45

GFSSW_700_rhum_282.txt.gz
RH
3 5 8 7 6 6 7 12 8 9 10 11 11 12 12 12 10 10 10 9 10 10 9 8 5 7 24 31 19 16 31 31 32 28 37 35 37 46 48 46 49 53 66 58 51
4 6 6 5 5 5 5 6 8 10 11 12 12 12 12 12 12 13 12 12 10 11 10 9 8 7 7 19 27 26 26 29 31 31 32 34 34 38 48 55 51 68 70 70 60
5 5 5 5 4 5 6 7 8 10 10 10 11 11 10 10 9 9 9 9 8 6 5 8 8 8 7 8 12 20 28 33 31 29 27 27 31 33 35 46 46 55 63 74 75
6 6 6 5 4 4 4 5 6 8 9 9 10 10 10 10 8 8 5 4 4 4 3 3 3 5 7 9 12 15 21 23 23 23 21 21 22 25 32 38 43 41 40 38 40
6 5 5 4 4 3 3 4 4 8 10 10 10 10 10 9 8 6 4 5 5 5 5 5 4 4 4 5 11 14 19 17 14 13 12 13 14 14 19 28 34 35 37 36 33
5 5 5 4 4 4 3 4 5 9 10 12 11 10 10 6 5 5 6 7 7 7 7 7 6 6 5 5 9 16 12 10 11 10 7 10 8 8 9 11 18 23 27 28 28
5 5 4 4 3 3 4 6 7 12 12 12 11 10 7 6 6 7 7 5 3 3 2 3 4 6 6 6 8 9 13 12 11 12 12 9 11 12 10 9 8 7 8 12 18
5 4 4 4 4 5 7 9 10 12 12 12 11 7 5 6 8 6 4 3 2 2 2 1 2 2 5 5 7 11 12 17 8 7 5 8 39 9 6 6 4 4 5 6 7
5 6 6 7 9 10 11 11 12 13 12 12 7 5 6 8 5 3 3 2 2 2 1 2 2 2 3 8 11 11 17 21 15 2 4 18 32 21 8 6 6 4 3 2 2
8 8 10 12 10 10 11 13 14 15 13 8 5 7 8 6 4 3 3 2 2 2 2 2 2 3 11 12 10 18 17 17 27 5 22 27 39 54 49 38 40 24 17 13 9
11 15 13 11 11 11 12 14 12 11 9 6 7 9 7 4 4 3 3 3 2 3 2 3 4 7 2 2 4 12 20 25 21 4 33 35 51 70 76 74 74 53 33 27 28
16 14 13 13 13 14 14 15 12 9 6 8 9 8 6 4 4 4 3 3 2 2 3 5 4 4 3 3 12 22 20 29 20 6 37 37 52 66 76 68 66 68 72 35 44
16 15 14 14 16 17 15 13 9 7 7 9 9 7 6 6 5 4 4 3 3 3 3 4 6 5 4 5 23 13 24 27 25 15 41 40 47 65 64 79 68 73 71 80 53
15 16 15 17 16 16 14 10 7 7 8 10 10 9 7 6 5 4 4 4 4 4 4 4 4 4 3 3 12 25 4 5 24 31 22 41 17 48 70 59 53 53 58 64 47
17 17 16 17 16 14 11 8 7 8 73 12 11 12 8 7 6 5 5 4 4 4 7 8 5 4 4 4 4 6 4 9 28 35 38 39 30 46 55 55 51 46 46 52 45
17 18 19 18 16 12 9 8 8 10 33 16 14 14 8 8 7 6 6 5 5 5 4 6 6 5 4 4 4 4 14 30 48 44 37 46 35 34 44 49 52 53 60 52 49
19 18 19 18 14 11 9 9 10 11 17 18 15 13 10 9 8 7 7 7 6 9 11 8 10 8 6 10 7 12 39 42 36 43 36 54 34 40 45 54 58 58 58 56 56
19 20 20 18 13 10 10 10 10 13 18 18 15 13 13 10 11 10 8 8 8 6 9 32 40 12 8 6 9 8 33 61 57 26 20 35 22 65 54 63 67 65 70 57 57
21 21 21 18 13 10 11 11 10 12 11 12 17 23 13 12 14 12 11 10 10 8 22 16 33 14 11 8 8 16 55 16 64 52 42 28 40 45 45 54 57 53 57 66 63
22 22 22 18 13 10 11 10 11 10 10 12 17 16 31 17 14 15 12 12 12 11 9 9 33 15 13 10 10 24 13 64 45 61 54 22 26 33 42 48 54 59 48 43 47
23 25 24 19 13 11 12 11 11 12 12 13 13 12 14 13 18 15 14 15 15 14 11 10 12 37 18 28 43 33 48 22 41 71 52 32 19 42 49 37 31 36 42 61 56
23 26 24 19 14 12 11 10 11 12 12 13 14 14 14 14 15 14 12 12 15 15 13 12 12 45 50 17 13 16 46 40 60 75 58 44 30 37 41 30 30 46 49 50 46
24 26 24 21 15 13 11 11 11 12 13 14 16 18 16 14 15 15 13 13 12 16 14 16 17 52 40 32 19 21 19 22 23 34 58 58 29 39 34 57 64 69 42 37 34
27 28 24 22 16 14 12 12 13 13 14 14 18 19 16 14 14 13 13 13 14 16 16 16 17 16 39 25 12 11 13 18 25 70 58 50 33 37 42 52 63 64 46 28 34
28 27 23 20 19 16 13 12 12 14 16 17 20 21 15 13 14 14 13 14 16 18 20 22 20 19 18 17 15 15 36 42 26 21 44 25 30 37 44 55 43 33 32 26 39
29 28 25 20 19 16 13 13 13 14 16 17 20 20 14 12 13 13 13 14 16 22 24 26 36 26 20 20 25 35 35 50 61 60 53 58 27 40 46 55 41 41 64 44 41
31 29 27 24 18 17 14 13 13 14 15 17 21 18 14 13 14 15 14 16 19 22 27 28 30 33 62 28 25 40 16 19 33 37 37 47 21 47 46 68 72 77 79 74 42

GFSSW_700_rhum_285.txt.gz
RH
2 5 10 7 7 9 9 10 8 8 10 12 12 12 12 11 10 9 9 9 9 8 8 5 26 38 30 13 14 26 27 30 26 29 30 30 31 32 43 52 58 60 65 68 56
3 8 9 6 5 5 7 9 8 7 9 12 12 10 10 9 10 12 12 11 11 10 9 16 29 32 32 23 15 21 22 25 27 29 31 32 30 34 42 45 49 62 63 68 63
4 8 6 5 5 6 6 6 7 7 7 9 10 9 9 9 8 8 9 8 8 6 9 9 20 25 12 27 25 22 23 26 27 29 28 33 34 33 37 45 48 56 61 68 70
5 5 5 5 5 6 5 5 6 5 5 8 9 9 9 9 16 7 5 4 4 4 3 6 22 22 12 14 18 24 26 25 26 26 26 27 32 32 35 45 44 47 53 57 59
5 6 5 5 5 4 4 4 3 4 4 8 10 10 9 8 7 6 4 4 4 4 4 3 17 19 8 13 18 24 24 26 23 21 16 17 18 23 28 34 38 44 47 46 47
6 6 5 5 4 4 4 3 3 4 5 10 10 9 9 6 5 5 6 6 6 6 6 6 7 6 13 16 18 25 21 24 22 23 22 16 16 27 15 17 22 26 27 32 34
5 6 5 5 4 4 3 3 4 6 8 11 10 9 8 6 5 6 6 5 3 3 4 5 6 6 6 5 12 18 13 10 16 21 21 13 31 22 18 16 12 11 10 12 13
5 5 5 4 4 4 4 5 7 9 10 11 10 8 6 5 7 5 3 2 2 2 1 2 2 3 5 5 9 21 19 16 18 20 8 7 36 34 18 27 17 21 29 25 16
5 5 5 5 5 6 8 10 10 11 12 11 8 5 6 7 5 2 2 2 2 1 1 1 1 2 4 17 13 13 11 17 22 17 18 18 38 53 40 46 49 49 50 50 54
5 5 5 7 7 10 11 12 10 12 11 8 6 6 7 5 3 2 2 2 2 2 2 8 13 14 14 11 8 12 15 19 20 21 21 27 44 54 55 57 57 55 52 53 54
5 5 7 11 12 12 11 13 12 10 8 6 6 6 6 3 3 3 2 2 2 9 5 23 22 23 24 20 16 15 14 18 21 13 23 31 42 53 61 61 61 57 59 62 38
7 8 12 13 11 12 14 17 28 11 8 7 7 7 6 3 3 3 3 3 7 4 5 10 7 4 3 14 16 15 17 21 22 10 28 30 41 53 59 61 59 58 55 67 72
9 13 13 12 12 14 16 13 12 9 13 8 8 7 5 4 3 4 4 5 9 7 13 18 5 2 7 15 15 12 20 20 20 23 28 28 36 48 58 59 44 46 50 57 68
13 15 13 14 14 16 15 11 10 9 40 9 11 8 6 4 4 4 4 4 10 9 4 6 5 14 11 5 26 21 2 4 20 25 18 26 20 37 47 41 40 40 47 54 62
17 14 14 14 15 16 12 8 9 11 88 12 11 9 6 6 4 5 4 6 4 5 19 18 20 21 20 3 9 23 3 26 26 24 25 24 17 38 41 36 44 37 46 54 59
17 16 15 16 16 14 10 8 10 27 42 20 15 14 9 6 6 5 5 5 5 4 5 5 5 5 4 4 5 4 33 36 35 29 31 29 21 23 31 37 33 40 43 48 54
17 17 16 15 16 12 8 10 22 17 26 22 26 17 22 8 6 9 6 6 30 22 34 22 10 6 5 29 26 37 41 50 38 44 38 38 24 42 43 38 41 46 48 55 52
18 17 18 17 16 10 9 14 24 22 27 23 27 26 28 15 11 7 9 9 6 14 30 35 44 16 6 10 29 27 41 68 67 25 18 26 18 53 38 38 49 53 46 48 62
20 19 20 17 14 10 12 30 20 28 26 28 27 26 30 10 11 15 34 32 7 7 47 37 37 9 8 7 14 38 52 17 49 43 27 16 28 30 35 36 38 42 57 65 77
21 21 21 18 13 11 16 12 19 20 16 26 29 26 27 26 20 33 28 12 8 8 8 16 44 32 10 9 9 40 12 66 58 76 64 21 18 23 33 34 43 54 63 69 79
22 24 22 17 12 12 14 15 10 11 22 30 32 28 27 29 30 32 39 13 10 10 9 9 19 42 13 35 42 36 53 38 61 58 58 32 20 31 35 42 50 57 68 70 72
24 26 22 17 13 12 13 20 11 11 11 16 30 32 32 32 31 33 35 38 12 12 19 11 16 44 44 25 11 36 48 56 69 94 47 40 27 29 44 44 53 62 70 70 73
25 25 22 18 14 13 16 13 11 11 12 14 14 16 28 34 32 39 40 11 11 12 28 13 40 54 44 58 19 32 39 14 10 27 47 52 32 40 43 41 48 56 64 73 79
25 26 22 19 18 15 13 12 11 13 16 15 17 14 18 35 26 38 18 12 12 13 14 14 20 35 58 57 30 13 12 12 13 54 58 38 36 32 35 34 39 51 64 71 77
27 26 20 18 18 15 21 23 11 12 13 14 15 18 26 25 20 22 27 12 14 13 15 19 19 20 16 15 35 41 39 52 25 21 36 25 22 23 26 30 39 52 59 64 65
28 26 22 18 19 17 29 28 28 28 13 15 21 18 36 16 17 24 15 13 16 14 16 17 34 24 17 25 35 35 33 35 43 63 58 48 40 38 38 39 44 48 58 62 67
27 26 25 20 19 25 21 29 40 26 17 32 32 38 32 39 18 17 29 21 24 22 28 35 37 22 61 46 44 42 37 36 32 34 43 48 44 43 44 44 48 60 62 65 68

GFSSW_700_rhum_291.txt.gz
RH
3 2 5 11 9 7 8 8 9 9 8 7 7 7 8 10 8 8 8 7 6 5 10 22 25 8 18 24 24 28 28 30 32 38 47 43 46 57 54 46 59 60 88 75 86
3 3 9 9 10 10 8 8 7 7 6 6 6 6 7 7 8 11 10 8 8 14 15 15 25 21 11 22 25 27 27 29 33 40 44 44 43 51 52 53 54 65 68 74 72
2 6 10 8 13 11 8 7 6 6 5 5 5 6 6 7 6 6 7 8 10 17 13 15 25 23 10 21 30 31 29 29 30 34 38 36 35 43 44 47 55 54 59 65 67
3 11 9 7 6 8 8 6 5 5 4 5 5 5 6 5 7 5 4 4 8 10 12 13 16 23 15 18 30 35 27 27 30 30 32 34 36 34 38 42 45 48 52 55 58
3 11 10 6 6 6 6 5 4 5 4 4 4 5 6 5 5 6 4 5 4 10 9 16 9 13 16 19 21 21 25 28 30 31 32 34 32 32 33 39 40 44 46 47 50
3 10 6 5 6 5 5 4 4 6 5 5 5 4 5 5 5 4 4 5 6 9 9 13 8 10 11 16 16 22 20 25 26 24 20 16 18 23 26 28 29 30 31 33 37
4 7 4 5 5 4 4 3 4 7 6 6 7 5 4 4 4 4 4 5 6 5 5 4 4 6 6 7 17 15 10 18 23 20 12 16 26 23 33 32 25 22 17 12 13
4 5 5 5 5 4 4 3 4 8 7 6 6 5 4 4 4 5 4 3 3 5 5 5 5 5 6 6 11 17 20 16 12 14 9 17 38 31 42 35 31 32 27 19 11
4 5 5 5 5 5 5 6 7 9 8 7 6 4 5 5 5 2 2 2 1 2 2 2 7 10 10 12 19 20 18 17 13 16 16 22 42 38 50 47 39 37 33 23 14
4 6 5 5 5 6 8 9 9 8 8 6 6 6 5 4 2 2 2 1 5 11 10 15 19 21 21 18 15 16 21 21 18 24 21 23 33 46 52 49 46 39 30 25 17
4 6 5 5 5 7 9 11 10 8 7 8 7 12 5 3 2 2 2 2 13 17 14 18 17 16 15 13 14 14 16 18 18 25 30 28 31 43 56 52 46 34 20 16 18
5 6 5 6 7 10 12 11 9 10 8 9 8 5 4 2 2 2 2 6 18 17 17 16 14 14 14 13 14 15 15 14 11 21 28 38 48 47 47 40 33 24 17 12 11
5 6 6 6 9 12 11 10 11 10 7 7 7 4 3 3 3 4 4 3 6 7 11 8 8 11 11 13 15 18 19 21 21 20 26 33 46 50 51 46 38 31 33 22 19
6 6 6 9 12 12 13 13 17 10 9 8 7 7 4 4 6 5 4 5 6 13 17 5 6 10 9 10 13 20 4 6 14 23 24 22 39 49 46 49 38 38 39 34 31
6 7 8 12 13 15 15 16 13 13 15 9 8 7 4 7 4 6 4 5 4 4 6 7 6 6 4 5 7 18 4 5 10 20 26 23 19 46 46 46 38 40 37 29 17
7 9 12 17 16 14 17 17 11 26 23 17 13 9 5 13 6 4 4 6 4 4 10 6 8 6 4 4 5 5 11 25 23 28 30 24 18 45 38 37 36 38 38 32 23
9 12 18 16 16 16 17 13 14 21 20 19 12 8 6 6 7 5 6 5 9 7 6 5 5 5 5 9 11 15 18 59 56 52 60 28 21 35 37 32 30 30 24 20 19
13 17 17 17 16 19 14 13 12 13 18 22 12 14 13 8 10 12 8 9 19 34 12 18 11 6 8 18 20 23 26 64 73 81 35 36 27 30 34 34 33 22 13 15 14
17 17 18 19 20 19 14 14 12 16 28 20 21 24 25 19 15 23 26 14 13 16 33 37 36 14 7 12 10 15 30 39 25 38 40 21 33 35 35 31 29 23 28 26 25
18 20 20 22 23 16 14 13 19 36 26 20 24 24 26 23 15 19 38 30 14 14 20 24 19 15 10 7 8 18 35 18 19 74 73 38 33 34 33 32 30 32 32 28 27
24 23 24 25 23 16 15 15 27 32 27 22 26 24 25 23 17 26 30 19 12 8 16 11 14 24 13 18 42 16 18 15 28 46 71 77 33 32 35 31 31 32 29 31 30
26 26 25 25 22 17 14 16 22 26 25 24 30 25 27 26 30 36 34 27 9 7 7 8 12 26 22 25 27 24 38 25 12 46 38 49 39 31 32 31 33 34 36 40 44
26 26 27 25 20 16 15 18 17 26 27 26 29 27 28 26 31 33 35 25 10 8 9 9 21 40 38 30 26 18 19 19 19 30 42 53 43 34 36 37 38 39 41 43 46
26 31 30 26 21 18 15 19 20 24 26 27 26 30 31 28 31 32 32 26 12 10 14 10 16 17 27 50 45 20 13 12 17 18 14 22 31 39 42 40 37 35 37 39 40
28 30 26 23 22 18 15 18 25 20 25 26 22 23 33 32 32 32 32 23 11 11 12 12 11 14 20 41 28 15 18 18 15 14 14 18 29 31 36 29 35 38 34 33 42
28 28 27 20 23 20 17 19 23 22 20 24 18 20 35 35 28 18 18 16 11 12 13 12 16 13 13 16 17 24 34 31 34 35 34 31 26 33 32 39 44 43 43 44 48
26 26 26 23 22 23 18 22 25 23 19 20 16 38 41 42 35 23 32 25 14 16 12 13 13 17 29 37 35 28 25 28 27 30 31 36 33 36 39 40 42 45 47 48 55